Location: Koszewko
(53.2876°N, 14.9061°E)
Time: 21:31:05
(UTC+00:00)

Cosmos 2184 Rocket - Pass Details

Date: 03 March 2021
Orbit: 960 x 1001 km, 82.9° (Epoch: 12 April)

Event Time Altitude Azimuth Distance (km) Brightness Sun altitude
Rises 17:56:01 0° 196° (SSW) 3,633 7.1 -11.8°
Reaches altitude 10° 17:58:31 10° 198° (SSW) 2,693 6.5 -12.1°
Maximum altitude 18:04:40 72° 283° (WNW) 1,019 4.3 -13.1°
Drops below altitude 10° 18:10:55 10° 8° (N) 2,731 6.4 -14.0°
Sets 18:13:28 0° 11° (N) 3,689 7.0 -14.4°
